7 * 24
多渠道服务支持
JILIN-01 GAOFEN 3D 31(吉林一号高分3D 31星)是中国于2022年5月5日发射的轻小型高分辨率光学遥感卫星,属于吉林一号卫星星座高分03系列卫星。该卫星运行于535km高度的太阳同步轨道,整星质量仅43kg,全色分辨率达0.75m,可服务于国土资源普查、城市规划、灾害监测等领域,是中国商业遥感卫星批量化生产的典型成果,为“吉林一号”星座提供高质量遥感数据支撑。
中国
(CN)
| 数据来源 | 国际轨道数据 |
| 星历时间: | 2026-08-07T08:59:02+0800 轨道信息已过期35天 |
| 半长轴: | 6537.697km |
| 偏心率: | 0.001464 |
| 轨道倾角: | 97.567° |
| 近地点辐角 | 271.286° |
| 升交点赤经 | 340.640° |
| 平近点角 | 88.676° |
| 近地点: | 149.988km |
| 远地点: | 169.132km |
| 周期: | 87.679分钟 |
| 每日圈数: | 16.423498 |